Regional Weather Roundup
Issued by NWS

Home | Current Version | Previous Version | Text Only | Print | Product List | Glossary Off
Versions: 1 2 3 4 5 6 7 8 9 10 11 12 13 14 15 16 17 18 19 20 21 22 23 24 25 26 27 28 29 30 31 32 33 34 35 36 37 38 39 40 41 42 43 44 45 46 47 48 49 50

000
ASUS45 KBOI 311810
RWRID

IDAHO REGIONAL WEATHER ROUNDUP
NATIONAL WEATHER SERVICE BOISE ID
1200 PM MDT FRI JUL 31 2015

NOTE: "FAIR" INDICATES FEW OR NO CLOUDS BELOW 12000 FEET
WITH NO SIGNIFICANT WEATHER AND/OR OBSTRUCTIONS TO VISIBILITY

IDZ012-014-311900-
SOUTHWEST IDAHO


CITY           SKY/WX    TMP DP  RH WIND       PRES   REMARKS
BOISE          SUNNY     89  35  14 CALM      30.17F
CALDWELL       SUNNY     84  41  21 S5        30.17F
MOUNTAIN HOME  SUNNY     86  31  14 E8        30.18F
$$

IDZ016-017-311900-
SOUTHCENTRAL IDAHO


CITY           SKY/WX    TMP DP  RH WIND       PRES   REMARKS
BURLEY         SUNNY     82  42  24 CALM      30.25F
JEROME         SUNNY     82  34  17 S5        30.26S
TWIN FALLS     SUNNY     85  35  16 N6        30.24S
$$

IDZ019>023-311900-
SOUTHEAST IDAHO


CITY           SKY/WX    TMP DP  RH WIND       PRES   REMARKS
IDAHO FALLS    SUNNY     81  39  22 NW3       30.31S
POCATELLO      SUNNY     81  41  24 NW5       30.29F
REXBURG        SUNNY     78  41  26 W6        30.32S
$$

IDZ006-010-011-018-031-032-311900-
CENTRAL IDAHO MOUNTAINS


CITY           SKY/WX    TMP DP  RH WIND       PRES   REMARKS
MCCALL         SUNNY     80  41  24 VRB5      30.30F
HAILEY         MOSUNNY   79  43  27 SE8       30.35S
STANLEY          N/A     77  36  22 NW5       30.42F
SALMON         SUNNY     75  45  33 CALM      30.26F
CHALLIS        SUNNY     78  37  22 NE5       30.33F
$$

IDZ002-004-006-007-026-311900-
NORTHERN IDAHO


CITY           SKY/WX    TMP DP  RH WIND       PRES   REMARKS
LEWISTON       SUNNY     87  43  21 VRB3      30.08F
LOWELL           N/A     79  48  33 N3        30.13F
COEUR D`ALENE  SUNNY     84  43  23 SE6       30.11F
MULLAN PASS    SUNNY     74  30  19 VRB3      30.37S
$$



USA.gov is the U.S. government's official web portal to all federal, state and local government web resources and services.